Probability
3 3 2 1 0 0 0 1 4 6 6 5 3 2 1 0 0 0 0 0 0 0 0 0 1 2 2 1 0 0 0 0 0 0 0 0 0 0 0 0 0 0 0
3 3 2 1 0 0 0 0 2 4 4 3 2 1 0 0 0 0 0 0 0 0 0 0 0 1 1 1 0 0 0 0 0 0 0 0 0 0 0 0 0 0 0
2 1 1 0 0 0 0 0 0 1 2 2 1 1 1 1 0 0 0 0 0 0 0 0 0 0 1 1 1 1 1 1 0 0 0 0 0 0 0 0 0 0 0
1 0 0 1 1 1 2 1 1 1 1 2 3 3 3 2 1 0 0 0 0 0 0 0 0 0 1 2 3 2 1 1 0 0 0 0 0 0 0 0 0 0 0
1 1 1 2 2 3 3 3 2 2 3 4 5 5 4 3 2 1 1 1 0 0 0 0 0 1 2 3 3 3 2 1 0 0 0 0 0 0 0 0 0 0 0
2 2 3 4 4 3 3 3 4 3 4 5 6 6 5 3 1 1 1 0 0 0 1 1 1 2 3 3 3 3 3 1 0 0 0 0 0 0 0 0 0 0 0
3 3 3 5 5 4 3 4 5 4 4 4 5 6 5 2 1 0 0 0 0 1 2 3 4 4 4 4 4 4 3 2 1 0 0 0 0 0 0 0 0 0 0
2 2 2 3 4 5 4 5 6 5 5 4 4 5 5 2 0 0 0 1 1 1 3 5 6 6 6 6 6 5 4 3 1 0 0 0 1 1 1 1 0 0 0
1 1 0 0 2 4 5 6 6 5 4 5 4 4 4 3 1 1 1 3 3 3 4 6 7 7 6 6 6 6 5 3 2 0 0 0 1 2 3 2 1 0 0
0 0 0 0 1 2 3 4 4 3 3 3 3 3 3 3 2 3 4 5 6 5 4 5 6 6 6 6 6 6 5 3 1 0 0 0 2 3 3 2 1 1 1
0 0 0 0 0 1 1 1 1 1 1 1 1 1 2 2 3 4 6 7 6 5 4 4 6 6 6 6 5 4 3 1 0 0 0 0 1 3 3 3 2 2 2
0 0 0 0 0 0 1 0 0 0 0 0 0 1 1 2 3 4 5 5 5 4 3 4 4 4 4 4 4 2 1 0 0 0 0 0 1 3 3 3 3 3 3
1 0 0 0 1 1 1 0 0 0 0 0 0 1 2 3 3 2 2 2 2 2 2 2 2 3 3 3 2 1 0 0 0 0 0 1 2 3 3 3 3 3 3
2 1 1 1 2 2 1 0 0 0 0 1 2 2 3 3 3 1 1 0 0 0 1 1 2 3 4 4 3 1 0 0 0 0 0 1 2 2 2 2 3 3 3
3 3 2 3 3 3 2 1 0 0 1 2 3 3 3 3 3 3 2 1 0 0 0 1 2 3 4 4 3 2 1 0 0 0 0 0 1 1 2 1 1 2 2
3 3 3 3 3 3 3 2 1 1 2 2 3 3 3 3 3 3 2 1 0 0 1 2 2 1 1 2 2 2 1 0 0 0 0 0 0 1 2 2 1 1 1
4 4 4 3 3 3 3 2 1 1 2 3 3 3 3 3 2 1 1 1 1 0 1 1 1 0 0 0 1 1 1 0 0 0 0 0 0 1 2 2 2 1 1
4 5 5 4 4 3 3 2 2 2 3 3 3 4 4 3 2 1 1 1 1 0 0 0 0 0 0 0 0 0 0 0 0 0 0 0 0 0 1 1 3 4 5
2 3 4 5 4 4 3 3 3 3 3 3 3 4 4 4 4 3 2 1 0 0 0 0 0 0 0 0 0 0 0 0 0 0 0 0 0 0 0 1 3 6 7
2 3 3 3 4 3 3 3 3 3 3 3 3 3 2 3 4 3 2 1 0 0 0 0 0 0 0 0 0 0 0 0 0 0 0 0 0 0 0 1 2 4 5
3 3 3 3 3 3 4 3 3 3 3 2 2 2 2 2 2 2 2 2 1 0 0 0 0 0 0 0 0 0 0 0 0 0 0 0 0 0 0 0 1 2 2
5 4 4 3 3 4 4 4 3 2 2 1 1 2 3 2 2 2 3 2 1 0 1 1 1 0 0 0 0 0 0 0 0 0 0 0 0 0 0 0 0 1 1
6 5 4 3 3 3 4 4 3 3 2 1 0 1 3 4 3 3 3 3 1 1 2 2 1 0 0 1 1 1 1 1 1 0 0 0 0 0 0 0 0 0 1
6 5 3 2 3 3 3 4 4 4 2 1 1 2 3 3 3 3 3 3 2 1 1 1 1 0 0 1 2 2 2 2 2 1 1 0 0 0 0 0 0 0 0
7 6 4 3 3 3 3 3 4 4 2 1 2 3 2 2 2 2 2 2 1 0 0 0 0 0 0 1 2 3 3 3 3 3 2 1 1 1 0 0 0 0 0
9 7 5 4 4 3 3 3 4 4 2 1 2 2 1 1 1 1 1 1 0 0 0 0 0 0 0 0 1 3 3 3 3 3 3 2 2 2 1 0 0 0 0
Wind_Speed
2 2 6 6 6 6 7 8 10 10 10 10 11 11 12 12 12 12 12 12 12 11 11 10 10 10 10 10 10 10 10 10 10 10 10 10 9 9 9 9 9 7 11
4 4 7 6 6 6 7 8 9 10 10 10 10 10 11 12 12 11 12 12 11 11 10 9 9 9 9 9 10 10 10 10 10 10 10 8 8 8 9 9 9 6 10
5 4 6 7 6 6 7 8 9 9 9 9 9 9 10 11 11 11 11 11 10 10 9 9 9 9 8 9 9 9 9 9 9 9 8 5 6 7 7 8 9 9 9
5 4 4 7 7 7 7 8 8 9 9 9 9 9 10 10 10 10 10 10 10 9 9 9 8 8 8 8 8 8 8 8 8 7 4 4 4 7 7 7 8 8 9
4 3 4 8 7 7 7 7 8 8 8 8 8 8 8 9 9 9 9 9 9 8 8 8 7 7 7 7 7 7 7 7 7 5 4 3 3 6 7 7 8 8 8
4 3 4 7 7 7 7 7 7 7 8 8 8 7 8 8 8 8 8 8 7 7 7 6 6 6 6 6 7 7 7 7 6 4 3 3 3 6 7 8 8 8 7
4 3 3 7 7 7 6 7 7 7 7 7 7 7 7 7 7 7 7 7 6 6 6 6 5 5 5 6 6 6 6 7 4 4 4 3 4 6 7 8 8 8 8
5 3 3 6 7 6 6 6 7 7 7 7 6 6 6 6 6 6 7 6 5 5 5 5 4 4 5 6 6 6 6 6 4 4 4 4 6 7 7 7 8 8 8
4 4 2 2 3 5 5 6 6 6 6 6 5 5 5 5 5 5 5 5 5 4 4 4 4 4 5 6 6 6 6 6 4 3 4 3 5 7 7 7 8 8 8
4 3 2 2 2 1 2 4 4 5 5 5 4 4 3 3 3 3 3 4 4 4 4 4 4 4 4 5 6 7 7 5 3 4 3 4 7 7 8 8 8 8 8
3 2 2 2 2 1 1 2 2 3 3 4 3 3 2 1 1 0 2 3 4 4 4 4 4 3 3 4 5 6 5 2 4 3 3 6 7 8 8 8 8 8 8
3 2 2 2 2 1 1 1 1 1 1 1 1 1 1 2 1 1 0 2 2 2 2 2 1 2 1 1 2 3 1 3 3 3 4 7 8 8 8 8 8 9 9
4 3 2 2 2 2 1 1 1 1 1 1 1 1 1 1 1 1 1 1 1 1 0 1 0 0 0 1 1 1 2 2 2 2 4 8 8 8 8 8 8 9 9
4 3 3 3 2 2 1 1 1 1 1 1 0 1 1 1 1 1 1 1 1 1 1 1 0 0 0 0 1 1 1 2 2 2 4 7 7 8 8 8 9 9 9
4 4 3 3 3 2 2 1 1 1 1 1 1 0 1 1 0 0 1 1 1 1 1 0 1 1 0 0 0 1 1 2 2 2 2 6 7 7 8 8 9 9 10
5 4 3 4 3 3 2 1 1 1 1 1 1 1 1 1 1 0 1 1 1 1 1 1 0 0 0 0 1 0 1 1 1 2 2 3 6 7 7 8 9 9 9
5 4 4 4 4 3 2 2 1 1 1 1 1 1 1 1 1 1 1 1 1 1 1 1 1 1 1 0 0 0 0 1 1 1 1 1 2 5 6 6 7 8 9
4 4 4 4 4 3 2 2 1 1 1 1 1 1 1 1 1 1 1 0 1 1 1 0 1 1 1 0 0 1 0 0 1 1 1 1 1 2 3 4 5 6 8
5 5 4 4 4 4 3 2 1 1 1 1 1 1 1 1 1 1 1 0 1 1 1 0 1 0 0 1 0 0 1 0 1 1 1 1 1 1 1 2 3 4 6
5 5 4 4 4 3 2 2 1 1 1 1 1 1 1 1 1 1 1 1 1 1 1 1 1 1 0 0 0 1 1 1 0 0 1 1 1 1 1 1 1 2 4
4 5 5 5 4 3 2 2 1 1 0 0 0 1 1 1 1 1 1 1 1 1 0 1 0 1 1 1 1 1 2 1 1 1 1 0 1 1 1 1 1 1 1
6 6 5 5 4 3 2 2 2 2 1 1 0 1 0 1 1 2 1 1 1 1 1 1 1 1 1 2 1 1 2 2 2 1 1 1 1 1 1 1 1 1 2
7 7 7 6 5 4 3 2 2 2 2 1 1 1 1 0 1 1 1 1 1 0 0 1 0 1 0 1 1 2 1 1 2 2 1 1 1 1 1 1 1 2 2
7 6 6 5 5 4 4 4 3 3 2 1 1 0 1 1 1 1 1 1 0 0 0 1 1 0 1 0 0 0 1 1 1 2 2 1 1 1 2 2 2 2 2
6 7 6 6 5 4 4 5 4 3 2 1 1 1 1 1 1 1 1 1 0 0 0 1 1 0 1 1 1 1 1 0 1 1 2 2 2 2 2 2 2 2 3
5 5 6 7 5 5 5 4 5 4 3 3 2 1 0 0 1 1 0 0 0 0 1 1 0 0 0 0 0 0 1 1 1 1 2 2 2 2 2 1 2 2 2
Wind_Direction
168 174 160 149 138 127 121 121 123 123 122 122 122 128 133 136 139 142 145 145 144 142 141 141 141 142 141 140 138 137 135 135 137 139 138 138 137 136 134 131 131 130 131
151 161 159 150 143 132 123 122 124 124 124 125 126 130 133 134 138 140 144 145 146 146 144 144 144 145 145 144 140 140 140 139 144 146 144 143 141 139 140 140 139 139 139
136 150 155 148 141 132 125 125 126 125 125 125 127 131 133 133 138 140 143 144 145 148 149 145 145 145 143 142 144 144 144 144 147 147 140 131 138 143 145 148 146 145 144
138 138 148 142 138 134 130 130 130 128 126 125 126 128 132 135 140 144 146 146 146 148 148 148 147 145 148 150 150 149 149 148 149 147 133 139 149 153 155 152 151 149 150
136 136 156 141 139 139 136 133 132 131 129 129 129 130 132 136 141 145 147 146 148 149 153 153 153 154 156 157 156 156 158 157 154 142 133 144 156 163 165 162 159 157 156
140 137 158 145 142 138 139 140 137 134 133 131 131 134 137 141 141 140 143 147 151 153 150 153 157 163 168 168 164 163 164 160 149 138 144 158 165 175 174 174 173 170 169
140 135 158 149 140 138 141 142 141 138 135 134 131 133 138 142 145 146 149 151 154 159 157 157 162 172 181 181 177 174 173 168 153 155 164 172 183 186 183 181 182 181 178
132 127 143 153 145 144 148 146 144 141 140 138 136 134 138 142 146 153 158 160 165 169 171 171 175 184 191 188 181 182 178 175 167 170 175 184 193 191 187 186 185 186 187
114 115 114 129 146 152 151 148 148 149 147 144 140 139 139 146 150 157 162 169 171 180 191 197 200 198 199 193 189 191 189 189 174 174 189 190 201 201 199 192 190 189 191
102 105 105 92 97 116 137 147 149 152 155 149 143 140 138 142 159 173 170 176 181 189 204 211 222 212 205 202 200 199 197 191 179 186 192 196 204 208 207 201 200 198 195
124 106 113 113 105 105 118 156 152 154 152 152 150 152 137 52 34 97 184 192 191 195 204 210 217 218 207 206 206 201 194 176 183 193 199 204 206 209 207 204 206 206 199
168 162 140 142 142 132 142 112 80 94 82 84 69 68 55 46 22 18 234 220 221 212 206 199 184 190 189 187 205 208 184 182 187 200 206 209 210 212 208 206 206 206 200
176 176 171 164 148 137 123 105 89 78 70 67 67 68 65 51 26 20 26 349 336 349 45 105 117 309 161 169 165 172 193 199 197 209 214 214 216 217 213 209 207 206 204
166 179 172 164 152 150 139 121 115 106 110 105 125 123 95 62 27 28 32 6 13 15 25 38 91 339 222 206 184 184 202 213 208 214 222 221 223 222 218 216 211 206 207
177 184 176 165 163 161 152 164 157 165 178 185 176 146 134 140 123 40 10 11 19 22 27 13 23 30 350 351 247 192 201 220 218 217 231 229 227 223 220 217 214 210 208
190 190 176 165 161 149 154 171 177 182 192 172 196 206 165 156 141 80 20 16 8 15 25 40 39 70 73 86 333 287 240 226 235 234 234 236 235 229 226 223 217 215 211
192 188 181 170 150 152 166 182 175 178 168 183 212 194 172 172 156 124 53 14 5 24 39 34 25 49 60 84 320 292 259 254 240 229 232 240 243 238 235 227 217 212 210
182 179 183 174 153 161 175 186 170 160 158 191 196 158 169 174 155 130 108 31 26 51 48 57 41 30 22 35 327 304 314 262 241 210 204 239 242 247 251 238 224 217 214
180 175 174 170 158 170 176 167 155 132 132 144 132 116 148 164 154 142 130 79 77 77 52 356 77 95 4 346 310 333 332 312 264 227 211 236 237 240 253 246 238 233 226
174 169 170 169 165 160 148 121 97 80 79 94 107 121 143 149 147 129 102 70 70 67 32 39 72 67 60 325 16 28 10 4 19 320 256 255 242 242 242 257 262 255 243
169 172 174 171 171 155 148 149 146 168 159 66 96 155 161 147 134 116 94 86 82 85 29 26 66 42 33 43 62 18 359 8 5 316 300 296 284 266 249 241 241 253 266
183 184 179 179 172 172 173 157 145 140 137 138 58 73 123 148 147 140 128 128 114 81 33 23 60 66 32 54 93 78 5 355 347 329 315 277 300 319 287 243 230 226 235
188 187 186 181 169 168 151 116 98 82 58 38 25 16 348 87 111 115 139 137 128 138 352 352 67 129 98 37 73 124 128 262 316 330 326 329 332 274 269 253 228 234 232
193 184 174 167 158 159 149 146 149 154 174 210 204 233 6 25 51 96 129 133 130 72 349 331 73 142 143 141 66 83 148 168 177 314 327 328 311 289 275 260 246 235 232
182 172 166 152 149 154 155 160 158 161 176 143 103 82 39 19 18 31 115 139 147 220 330 7 34 71 165 185 190 166 152 123 163 200 289 314 324 295 278 259 254 254 243
168 161 154 146 149 157 158 162 164 164 157 138 135 146 166 345 355 356 63 119 189 243 287 305 359 29 34 219 262 190 173 171 195 196 244 280 294 295 294 277 266 266 252